Home   Weather   Heidelberg   Past weeks

Flag for Germany Past Weather in Heidelberg, Baden-Württemberg, Germany — Yesterday and Last 2 Weeks

Now
68 °F

Passing clouds.


Feels Like: 68 °F
Forecast: 56 / 69 °F
Wind: 6 mph from South

Location: Mannheim City

Current Time: Aug 18, 2017 at 9:07:19 am

Latest Report: Aug 18, 2017 at 8:20 am


Visibility: N/A

Pressure: 30.01 "Hg

Humidity: 88%

Dew Point: 64 °F

Location of HeidelbergLocation

Past Weather in Heidelberg — Graph

°F

Heidelberg Temperature Yesterday

Maximum temperature yesterday: 82 °F (at 3:50 pm)
Minimum temperature yesterday: 61 °F (at 5:20 am)
Average temperature yesterday: 74 °F

High & Low Weather Summary for the Past Weeks

 TemperatureHumidityPressure
High82 °F (Aug 3, 4:20 pm)100% (Aug 3, 7:20 am)30.21 "Hg (Aug 3, 7:20 am)
Low54 °F (Aug 7, 5:50 am)29% (Aug 6, 5:50 pm)29.83 "Hg (Aug 8, 5:20 am)
Average70 °F71%30.04 "Hg
* Reported Aug 3 7:20 am — Aug 18 7:50 am, Heidelberg. Weather by CustomWeather, © 2017

Note: Actual official high and low records may vary slightly from our data, if they occured in-between our weather recording intervals... More about our weather records

Advertising

Heidelberg Weather History for the Previous 24 Hours

Scroll right to see more
 ConditionsComfort  
Time TempWeatherWind HumidityBarometerVisibility
7:50 am
Fri, Aug 18
68 °FSunny.3 mph88%29.98 "Hg10 mi
7:20 am66 °FSunny.5 mph94%30.01 "Hg10 mi
6:50 am66 °FSunny.3 mph94%30.01 "Hg10 mi
6:20 am68 °FPassing clouds.6 mph83%30.01 "HgN/A
5:50 am68 °FPassing clouds.5 mph83%30.01 "HgN/A
5:20 am68 °FClear.5 mph83%30.01 "Hg10 mi
8:50 pm
Thu, Aug 17
75 °FClear.2 mph57%30.04 "Hg10 mi
8:20 pm77 °FSunny.2 mph54%30.04 "Hg10 mi
7:50 pm79 °FSunny.3 mph48%30.04 "Hg10 mi
7:20 pm79 °FSunny.5 mph48%30.04 "Hg10 mi
6:50 pm79 °FSunny.8 mph48%30.04 "Hg10 mi
6:20 pm81 °FPassing clouds.9 mph42%30.04 "HgN/A
5:50 pm81 °FPassing clouds.9 mph45%30.04 "HgN/A
5:20 pm82 °FPassing clouds.8 mph42%30.04 "HgN/A
4:50 pm81 °FPassing clouds.10 mph42%30.04 "HgN/A
4:20 pm82 °FPassing clouds.10 mph42%30.04 "HgN/A
3:50 pm82 °FPassing clouds.9 mph42%30.04 "HgN/A
3:20 pm81 °FScattered clouds.10 mph48%30.04 "HgN/A
2:50 pm81 °FPassing clouds.10 mph51%30.04 "HgN/A
2:20 pm81 °FScattered clouds.8 mph54%30.04 "HgN/A
1:50 pm79 °FPassing clouds.8 mph58%30.04 "HgN/A
1:20 pm79 °FPassing clouds.7 mph61%30.07 "HgN/A
12:50 pm77 °FPassing clouds.6 mph69%30.07 "HgN/A
12:20 pm75 °FPassing clouds.7 mph69%30.07 "HgN/A
11:50 am75 °FPassing clouds.6 mph74%30.07 "HgN/A
11:20 am73 °FPassing clouds.6 mph74%30.09 "HgN/A
10:50 am73 °FPassing clouds.6 mph78%30.09 "HgN/A
10:20 am72 °FPassing clouds.6 mph78%30.09 "HgN/A
9:20 am72 °FPassing clouds.6 mph83%30.07 "HgN/A
Weather by CustomWeather, © 2017

See weather overviewHow to use our weather pages